Time,TemperatureF,DewpointF,PressureIn,WindDirection,WindDirectionDegrees,WindSpeedMPH,WindSpeedGustMPH,Humidity,HourlyPrecipIn,Conditions,Clouds,dailyrainin,SoftwareType,DateUTC
2013-03-12 00:00:00,52.8,45.4,29.81,ENE,71,1.0,17.0,76,0.00,,,0.00,Wunderground v.1.15,2013-03-12 04:00:00,
2013-03-12 00:05:00,52.8,45.4,29.81,East,85,1.0,17.0,76,0.00,,,0.00,Wunderground v.1.15,2013-03-12 04:05:00,
2013-03-12 00:10:00,52.8,45.4,29.81,NE,53,0.0,17.0,76,0.00,,,0.00,Wunderground v.1.15,2013-03-12 04:10:00,
2013-03-12 00:15:00,52.6,45.2,29.79,ENE,69,0.0,17.0,76,0.00,,,0.00,Wunderground v.1.15,2013-03-12 04:15:00,
2013-03-12 00:25:00,52.8,45.8,29.79,NE,56,0.0,17.0,77,0.00,,,0.00,Wunderground v.1.15,2013-03-12 04:25:00,
2013-03-12 00:30:00,52.8,46.1,29.79,East,85,1.0,17.0,78,0.00,,,0.00,Wunderground v.1.15,2013-03-12 04:30:00,
2013-03-12 00:35:00,52.5,46.2,29.77,SSW,201,1.0,17.0,79,0.00,,,0.00,Wunderground v.1.15,2013-03-12 04:35:00,
2013-03-12 00:40:00,52.3,46.3,29.77,East,92,0.0,17.0,80,0.00,,,0.00,Wunderground v.1.15,2013-03-12 04:40:00,
2013-03-12 00:45:00,52.2,46.2,29.77,East,91,0.0,17.0,80,0.00,,,0.00,Wunderground v.1.15,2013-03-12 04:45:00,
2013-03-12 00:50:00,52.0,46.7,29.78,East,86,0.0,17.0,82,0.00,,,0.00,Wunderground v.1.15,2013-03-12 04:50:00,
2013-03-12 00:55:00,51.7,46.7,29.78,East,86,0.0,17.0,83,0.00,,,0.01,Wunderground v.1.15,2013-03-12 04:55:00,
2013-03-12 01:00:00,51.6,46.6,29.77,East,86,0.0,17.0,83,0.00,,,0.01,Wunderground v.1.15,2013-03-12 05:00:00,
2013-03-12 01:05:00,51.6,46.9,29.77,East,86,0.0,17.0,84,0.00,,,0.00,Wunderground v.1.15,2013-03-12 05:05:00,
2013-03-12 01:15:00,51.4,47.0,29.77,East,86,0.0,17.0,85,0.00,,,0.00,Wunderground v.1.15,2013-03-12 05:15:00,
2013-03-12 01:20:00,51.4,47.0,29.77,East,86,0.0,17.0,85,0.00,,,0.00,Wunderground v.1.15,2013-03-12 05:20:00,
2013-03-12 01:25:00,51.4,47.0,29.77,East,80,0.0,17.0,85,0.00,,,0.00,Wunderground v.1.15,2013-03-12 05:25:00,
2013-03-12 01:30:00,51.4,47.0,29.77,NE,47,0.0,17.0,85,0.00,,,0.00,Wunderground v.1.15,2013-03-12 05:30:00,
2013-03-12 01:35:00,51.3,46.9,29.75,NE,47,0.0,17.0,85,0.00,,,0.00,Wunderground v.1.15,2013-03-12 05:35:00,
2013-03-12 01:40:00,51.1,46.7,29.75,NE,47,0.0,17.0,85,0.00,,,0.00,Wunderground v.1.15,2013-03-12 05:40:00,
2013-03-12 01:45:00,51.1,47.1,29.75,NE,46,0.0,17.0,86,0.00,,,0.00,Wunderground v.1.15,2013-03-12 05:45:00,
2013-03-12 01:50:00,51.1,47.1,29.75,NE,46,0.0,17.0,86,0.00,,,0.00,Wunderground v.1.15,2013-03-12 05:50:00,
2013-03-12 01:55:00,51.1,47.1,29.75,NE,46,0.0,17.0,86,0.00,,,0.00,Wunderground v.1.15,2013-03-12 05:55:00,
2013-03-12 02:05:00,51.0,47.3,29.75,NE,46,0.0,17.0,87,0.00,,,0.00,Wunderground v.1.15,2013-03-12 06:05:00,
2013-03-12 02:10:00,50.8,47.1,29.75,NE,47,0.0,17.0,87,0.00,,,0.00,Wunderground v.1.15,2013-03-12 06:10:00,
2013-03-12 02:15:00,50.8,47.1,29.75,NE,47,0.0,17.0,87,0.00,,,0.00,Wunderground v.1.15,2013-03-12 06:15:00,
2013-03-12 02:20:00,50.8,47.4,29.76,NE,47,0.0,17.0,88,0.00,,,0.00,Wunderground v.1.15,2013-03-12 06:20:00,
2013-03-12 02:25:00,50.8,47.4,29.76,NE,47,0.0,17.0,88,0.00,,,0.01,Wunderground v.1.15,2013-03-12 06:25:00,
2013-03-12 02:30:00,50.8,47.4,29.76,NE,47,0.0,17.0,88,0.00,,,0.01,Wunderground v.1.15,2013-03-12 06:30:00,
2013-03-12 02:35:00,50.8,47.4,29.76,NE,47,0.0,17.0,88,0.00,,,0.01,Wunderground v.1.15,2013-03-12 06:35:00,
2013-03-12 02:40:00,50.8,47.4,29.76,NE,47,0.0,17.0,88,0.00,,,0.01,Wunderground v.1.15,2013-03-12 06:40:00,
2013-03-12 02:45:00,50.8,47.4,29.75,NE,47,0.0,17.0,88,0.00,,,0.01,Wunderground v.1.15,2013-03-12 06:45:00,
2013-03-12 02:55:00,50.7,47.6,29.75,NE,47,0.0,17.0,89,0.00,,,0.01,Wunderground v.1.15,2013-03-12 06:55:00,
2013-03-12 03:00:00,50.5,47.4,29.75,NE,47,0.0,17.0,89,0.00,,,0.01,Wunderground v.1.15,2013-03-12 07:00:00,
2013-03-12 03:05:00,50.4,47.3,29.74,NE,47,0.0,17.0,89,0.00,,,0.01,Wunderground v.1.15,2013-03-12 07:05:00,
2013-03-12 03:10:00,50.4,47.6,29.74,NE,47,0.0,17.0,90,0.00,,,0.01,Wunderground v.1.15,2013-03-12 07:10:00,
2013-03-12 03:15:00,50.4,47.6,29.74,NE,47,0.0,17.0,90,0.00,,,0.01,Wunderground v.1.15,2013-03-12 07:15:00,
2013-03-12 03:20:00,50.4,47.6,29.74,NE,47,0.0,17.0,90,0.00,,,0.01,Wunderground v.1.15,2013-03-12 07:20:00,
2013-03-12 03:25:00,50.4,47.6,29.74,NE,47,0.0,17.0,90,0.00,,,0.01,Wunderground v.1.15,2013-03-12 07:25:00,
2013-03-12 03:35:00,50.4,47.6,29.72,NE,47,0.0,17.0,90,0.00,,,0.02,Wunderground v.1.15,2013-03-12 07:35:00,
2013-03-12 03:40:00,50.4,47.9,29.72,NE,47,0.0,17.0,91,0.00,,,0.02,Wunderground v.1.15,2013-03-12 07:40:00,
2013-03-12 03:45:00,50.4,47.9,29.72,NE,47,0.0,17.0,91,0.00,,,0.02,Wunderground v.1.15,2013-03-12 07:45:00,
2013-03-12 03:50:00,50.2,47.7,29.72,NE,47,0.0,17.0,91,0.00,,,0.02,Wunderground v.1.15,2013-03-12 07:50:00,
2013-03-12 03:55:00,50.2,47.7,29.72,NE,47,0.0,17.0,91,0.00,,,0.02,Wunderground v.1.15,2013-03-12 07:55:00,
2013-03-12 04:00:00,50.1,47.6,29.71,NE,47,0.0,17.0,91,0.00,,,0.02,Wunderground v.1.15,2013-03-12 08:00:00,
2013-03-12 04:05:00,50.1,47.6,29.71,NE,47,0.0,17.0,91,0.00,,,0.02,Wunderground v.1.15,2013-03-12 08:05:00,
2013-03-12 04:10:00,50.1,47.6,29.71,NE,47,0.0,17.0,91,0.00,,,0.02,Wunderground v.1.15,2013-03-12 08:10:00,
2013-03-12 04:15:00,50.1,47.6,29.71,NE,47,0.0,17.0,91,0.00,,,0.02,Wunderground v.1.15,2013-03-12 08:15:00,
2013-03-12 04:20:00,50.2,47.7,29.71,NE,47,0.0,17.0,91,0.00,,,0.02,Wunderground v.1.15,2013-03-12 08:20:00,
2013-03-12 04:30:00,50.2,47.7,29.71,NE,47,0.0,17.0,91,0.00,,,0.02,Wunderground v.1.15,2013-03-12 08:30:00,
2013-03-12 04:35:00,50.2,47.7,29.70,NE,47,0.0,17.0,91,0.00,,,0.02,Wunderground v.1.15,2013-03-12 08:35:00,
2013-03-12 04:40:00,50.2,47.7,29.70,NE,47,0.0,17.0,91,0.00,,,0.02,Wunderground v.1.15,2013-03-12 08:40:00,
2013-03-12 04:45:00,50.2,47.7,29.70,NE,47,0.0,17.0,91,0.00,,,0.02,Wunderground v.1.15,2013-03-12 08:45:00,
2013-03-12 04:50:00,50.2,48.0,29.70,NE,47,0.0,17.0,92,0.00,,,0.02,Wunderground v.1.15,2013-03-12 08:50:00,
2013-03-12 04:55:00,50.2,48.0,29.70,NE,47,0.0,17.0,92,0.00,,,0.02,Wunderground v.1.15,2013-03-12 08:55:00,
2013-03-12 05:00:00,50.2,48.0,29.70,NE,47,0.0,17.0,92,0.00,,,0.02,Wunderground v.1.15,2013-03-12 09:00:00,
2013-03-12 05:05:00,50.4,48.2,29.70,NE,47,0.0,17.0,92,0.00,,,0.02,Wunderground v.1.15,2013-03-12 09:05:00,
2013-03-12 05:10:00,50.4,48.2,29.70,NE,47,0.0,17.0,92,0.00,,,0.02,Wunderground v.1.15,2013-03-12 09:10:00,
2013-03-12 05:15:00,50.4,48.2,29.69,NE,47,0.0,17.0,92,0.00,,,0.02,Wunderground v.1.15,2013-03-12 09:15:00,
2013-03-12 05:25:00,50.4,48.2,29.69,NE,47,0.0,17.0,92,0.00,,,0.02,Wunderground v.1.15,2013-03-12 09:25:00,
2013-03-12 05:30:00,50.5,48.3,29.69,NE,47,0.0,17.0,92,0.00,,,0.02,Wunderground v.1.15,2013-03-12 09:30:00,
2013-03-12 05:35:00,50.5,48.3,29.69,NE,47,0.0,17.0,92,0.00,,,0.02,Wunderground v.1.15,2013-03-12 09:35:00,
2013-03-12 05:40:00,50.5,48.3,29.69,NE,47,0.0,17.0,92,0.00,,,0.02,Wunderground v.1.15,2013-03-12 09:40:00,
2013-03-12 05:45:00,50.7,48.5,29.69,NE,47,0.0,17.0,92,0.00,,,0.02,Wunderground v.1.15,2013-03-12 09:45:00,
2013-03-12 05:50:00,50.7,48.5,29.69,NE,47,0.0,17.0,92,0.00,,,0.02,Wunderground v.1.15,2013-03-12 09:50:00,
2013-03-12 05:55:00,50.7,48.5,29.69,NE,47,0.0,17.0,92,0.00,,,0.03,Wunderground v.1.15,2013-03-12 09:55:00,
2013-03-12 06:00:00,50.7,48.5,29.69,NE,47,0.0,17.0,92,0.08,,,0.04,Wunderground v.1.15,2013-03-12 10:00:00,
2013-03-12 06:10:00,50.7,48.5,29.69,NE,47,0.0,17.0,92,0.07,,,0.05,Wunderground v.1.15,2013-03-12 10:10:00,
2013-03-12 06:15:00,50.7,48.5,29.69,NE,47,0.0,17.0,92,0.07,,,0.05,Wunderground v.1.15,2013-03-12 10:15:00,
2013-03-12 06:20:00,50.7,48.5,29.68,NE,47,0.0,17.0,92,0.08,,,0.06,Wunderground v.1.15,2013-03-12 10:20:00,
2013-03-12 06:25:00,50.7,48.5,29.68,NE,47,0.0,17.0,92,0.06,,,0.06,Wunderground v.1.15,2013-03-12 10:25:00,
2013-03-12 06:30:00,50.7,48.5,29.68,NE,47,0.0,17.0,92,0.06,,,0.07,Wunderground v.1.15,2013-03-12 10:30:00,
2013-03-12 06:35:00,50.7,48.5,29.68,NE,47,0.0,17.0,92,0.06,,,0.07,Wunderground v.1.15,2013-03-12 10:35:00,
2013-03-12 06:45:00,50.7,48.7,29.68,NE,47,0.0,17.0,93,0.00,,,0.07,Wunderground v.1.15,2013-03-12 10:45:00,
2013-03-12 06:50:00,50.7,48.7,29.67,NE,47,0.0,17.0,93,0.00,,,0.08,Wunderground v.1.15,2013-03-12 10:50:00,
2013-03-12 06:55:00,50.7,48.7,29.67,ESE,116,0.0,17.0,93,0.08,,,0.09,Wunderground v.1.15,2013-03-12 10:55:00,
2013-03-12 07:00:00,50.8,48.8,29.67,ESE,116,0.0,17.0,93,0.16,,,0.10,Wunderground v.1.15,2013-03-12 11:00:00,
2013-03-12 07:05:00,51.0,49.0,29.67,East,89,0.0,17.0,93,0.14,,,0.11,Wunderground v.1.15,2013-03-12 11:05:00,
2013-03-12 07:10:00,51.0,49.0,29.67,East,90,0.0,17.0,93,0.10,,,0.12,Wunderground v.1.15,2013-03-12 11:10:00,
2013-03-12 07:15:00,51.1,49.1,29.66,East,90,0.0,17.0,93,0.12,,,0.13,Wunderground v.1.15,2013-03-12 11:15:00,
2013-03-12 07:25:00,51.3,49.3,29.66,East,90,0.0,17.0,93,0.16,,,0.15,Wunderground v.1.15,2013-03-12 11:25:00,
2013-03-12 07:30:00,51.4,49.4,29.66,East,80,0.0,17.0,93,0.67,,,0.17,Wunderground v.1.15,2013-03-12 11:30:00,
2013-03-12 07:35:00,51.4,49.4,29.66,East,80,0.0,17.0,93,0.16,,,0.19,Wunderground v.1.15,2013-03-12 11:35:00,
2013-03-12 07:40:00,51.4,49.4,29.66,East,80,0.0,17.0,93,0.12,,,0.20,Wunderground v.1.15,2013-03-12 11:40:00,
2013-03-12 07:45:00,51.4,49.4,29.65,East,80,0.0,17.0,93,0.12,,,0.21,Wunderground v.1.15,2013-03-12 11:45:00,
2013-03-12 07:50:00,51.4,49.4,29.65,East,80,0.0,17.0,93,0.09,,,0.22,Wunderground v.1.15,2013-03-12 11:50:00,
2013-03-12 07:55:00,51.6,49.6,29.65,East,81,0.0,17.0,93,0.14,,,0.24,Wunderground v.1.15,2013-03-12 11:55:00,
2013-03-12 08:00:00,51.6,49.9,29.63,NE,43,0.0,17.0,94,0.15,,,0.25,Wunderground v.1.15,2013-03-12 12:00:00,
2013-03-12 08:05:00,51.7,50.0,29.63,East,84,0.0,17.0,94,0.24,,,0.27,Wunderground v.1.15,2013-03-12 12:05:00,
2013-03-12 08:10:00,51.7,50.0,29.63,East,84,0.0,17.0,94,0.46,,,0.31,Wunderground v.1.15,2013-03-12 12:10:00,
2013-03-12 08:15:00,51.7,50.0,29.63,East,84,0.0,17.0,94,0.25,,,0.33,Wunderground v.1.15,2013-03-12 12:15:00,
2013-03-12 08:25:00,51.9,50.2,29.63,NNE,28,0.0,17.0,94,0.10,,,0.34,Wunderground v.1.15,2013-03-12 12:25:00,
2013-03-12 08:30:00,51.9,50.2,29.63,ENE,73,0.0,17.0,94,0.09,,,0.35,Wunderground v.1.15,2013-03-12 12:30:00,
2013-03-12 08:35:00,51.9,50.2,29.63,ENE,73,0.0,17.0,94,0.06,,,0.35,Wunderground v.1.15,2013-03-12 12:35:00,
2013-03-12 08:45:00,51.9,50.2,29.63,ENE,74,0.0,17.0,94,0.10,,,0.37,Wunderground v.1.15,2013-03-12 12:45:00,
2013-03-12 08:50:00,52.0,50.3,29.63,East,81,0.0,17.0,94,0.15,,,0.39,Wunderground v.1.15,2013-03-12 12:50:00,
2013-03-12 08:55:00,52.2,50.5,29.63,East,83,1.0,17.0,94,0.16,,,0.40,Wunderground v.1.15,2013-03-12 12:55:00,
2013-03-12 09:00:00,52.3,50.6,29.61,East,79,1.0,1.0,94,0.16,,,0.41,Wunderground v.1.15,2013-03-12 13:00:00,
2013-03-12 09:05:00,52.3,50.6,29.61,ENE,78,0.0,17.0,94,0.13,,,0.42,Wunderground v.1.15,2013-03-12 13:05:00,
2013-03-12 09:10:00,52.3,50.6,29.61,ENE,78,0.0,17.0,94,0.11,,,0.43,Wunderground v.1.15,2013-03-12 13:10:00,
2013-03-12 09:15:00,52.5,50.8,29.61,ENE,78,0.0,17.0,94,0.06,,,0.43,Wunderground v.1.15,2013-03-12 13:15:00,
2013-03-12 09:20:00,52.6,50.9,29.61,ENE,77,0.0,17.0,94,0.04,,,0.43,Wunderground v.1.15,2013-03-12 13:20:00,
2013-03-12 09:30:00,52.8,51.1,29.61,ENE,77,0.0,17.0,94,0.13,,,0.45,Wunderground v.1.15,2013-03-12 13:30:00,
2013-03-12 09:35:00,52.8,51.1,29.61,ENE,77,0.0,17.0,94,0.09,,,0.46,Wunderground v.1.15,2013-03-12 13:35:00,
2013-03-12 09:40:00,52.8,51.1,29.61,ENE,77,0.0,17.0,94,0.07,,,0.46,Wunderground v.1.15,2013-03-12 13:40:00,
2013-03-12 09:45:00,52.9,51.2,29.60,NE,36,0.0,17.0,94,0.05,,,0.46,Wunderground v.1.15,2013-03-12 13:45:00,
2013-03-12 09:50:00,53.1,51.4,29.60,East,90,0.0,17.0,94,0.04,,,0.47,Wunderground v.1.15,2013-03-12 13:50:00,
2013-03-12 09:55:00,53.1,51.4,29.60,ENE,58,0.0,17.0,94,0.04,,,0.47,Wunderground v.1.15,2013-03-12 13:55:00,
2013-03-12 10:05:00,53.3,51.6,29.59,ENE,61,1.0,17.0,94,0.00,,,0.47,Wunderground v.1.15,2013-03-12 14:05:00,
2013-03-12 10:10:00,53.3,51.6,29.59,ENE,67,0.0,17.0,94,0.20,,,0.49,Wunderground v.1.15,2013-03-12 14:10:00,
2013-03-12 10:15:00,53.5,51.8,29.58,East,83,0.0,17.0,94,0.33,,,0.51,Wunderground v.1.15,2013-03-12 14:15:00,
2013-03-12 10:20:00,53.8,52.4,29.58,SSE,165,1.0,17.0,95,0.34,,,0.53,Wunderground v.1.15,2013-03-12 14:20:00,
2013-03-12 10:25:00,53.9,52.5,29.58,WSW,254,2.0,17.0,95,1.44,,,0.58,Wunderground v.1.15,2013-03-12 14:25:00,
2013-03-12 10:30:00,54.1,52.7,29.61,South,187,1.0,1.0,95,0.82,,,0.70,Wunderground v.1.15,2013-03-12 14:30:00,
2013-03-12 10:35:00,54.1,52.7,29.61,South,187,0.0,17.0,95,0.46,,,0.75,Wunderground v.1.15,2013-03-12 14:35:00,
2013-03-12 10:45:00,54.2,52.8,29.61,South,187,0.0,17.0,95,0.32,,,0.81,Wunderground v.1.15,2013-03-12 14:45:00,
2013-03-12 10:50:00,54.2,52.8,29.60,South,187,0.0,17.0,95,0.33,,,0.84,Wunderground v.1.15,2013-03-12 14:50:00,
2013-03-12 10:55:00,54.2,52.8,29.60,South,187,0.0,17.0,95,0.35,,,0.86,Wunderground v.1.15,2013-03-12 14:55:00,
2013-03-12 11:00:00,54.5,53.1,29.60,South,187,0.0,17.0,95,0.22,,,0.88,Wunderground v.1.15,2013-03-12 15:00:00,
2013-03-12 11:05:00,54.7,53.3,29.60,South,187,0.0,17.0,95,0.09,,,0.88,Wunderground v.1.15,2013-03-12 15:05:00,
2013-03-12 11:10:00,54.7,53.3,29.60,South,187,0.0,17.0,95,0.08,,,0.89,Wunderground v.1.15,2013-03-12 15:10:00,
2013-03-12 11:20:00,54.8,53.4,29.60,SSW,196,0.0,17.0,95,0.05,,,0.90,Wunderground v.1.15,2013-03-12 15:20:00,
2013-03-12 11:25:00,54.8,53.4,29.60,SSW,204,0.0,17.0,95,0.05,,,0.90,Wunderground v.1.15,2013-03-12 15:25:00,
2013-03-12 11:30:00,54.7,53.3,29.60,SSW,211,1.0,1.0,95,0.05,,,0.90,Wunderground v.1.15,2013-03-12 15:30:00,
2013-03-12 11:35:00,54.7,53.3,29.61,SW,221,1.0,17.0,95,0.05,,,0.91,Wunderground v.1.15,2013-03-12 15:35:00,
2013-03-12 11:40:00,54.5,53.1,29.61,SSE,162,0.0,17.0,95,0.07,,,0.92,Wunderground v.1.15,2013-03-12 15:40:00,
2013-03-12 11:45:00,54.2,52.8,29.61,West,275,1.0,17.0,95,0.16,,,0.93,Wunderground v.1.15,2013-03-12 15:45:00,
2013-03-12 11:50:00,52.9,51.2,29.61,West,272,2.0,17.0,94,0.09,,,0.94,Wunderground v.1.15,2013-03-12 15:50:00,
2013-03-12 11:55:00,52.0,50.3,29.61,WNW,291,2.0,17.0,94,0.09,,,0.94,Wunderground v.1.15,2013-03-12 15:55:00,
2013-03-12 12:00:00,51.3,49.6,29.62,SSW,213,1.0,17.0,94,0.05,,,0.95,Wunderground v.1.15,2013-03-12 16:00:00,
2013-03-12 12:10:00,50.4,48.7,29.62,WSW,242,3.0,17.0,94,0.17,,,0.97,Wunderground v.1.15,2013-03-12 16:10:00,
2013-03-12 12:15:00,49.8,48.1,29.62,WSW,252,3.0,17.0,94,0.34,,,0.99,Wunderground v.1.15,2013-03-12 16:15:00,
2013-03-12 12:20:00,49.6,47.9,29.63,WSW,250,2.0,2.0,94,0.13,,,1.00,Wunderground v.1.15,2013-03-12 16:20:00,
2013-03-12 12:25:00,49.5,47.8,29.63,West,259,2.0,3.0,94,0.07,,,1.01,Wunderground v.1.15,2013-03-12 16:25:00,
2013-03-12 12:30:00,49.5,47.8,29.62,WNW,284,2.0,17.0,94,0.07,,,1.01,Wunderground v.1.15,2013-03-12 16:30:00,
2013-03-12 12:35:00,49.6,47.9,29.62,SSW,209,4.0,17.0,94,0.05,,,1.01,Wunderground v.1.15,2013-03-12 16:35:00,
2013-03-12 12:40:00,50.1,48.4,29.62,South,182,4.0,17.0,94,0.04,,,1.01,Wunderground v.1.15,2013-03-12 16:40:00,
2013-03-12 12:45:00,50.7,49.0,29.63,SW,236,4.0,17.0,94,0.00,,,1.01,Wunderground v.1.15,2013-03-12 16:45:00,
2013-03-12 12:50:00,50.2,48.3,29.63,SW,226,5.0,17.0,93,0.00,,,1.01,Wunderground v.1.15,2013-03-12 16:50:00,
2013-03-12 12:55:00,50.5,48.3,29.63,SSE,161,5.0,17.0,92,0.00,,,1.01,Wunderground v.1.15,2013-03-12 16:55:00,
2013-03-12 13:05:00,50.8,48.0,29.63,West,273,5.0,5.0,90,0.00,,,1.01,Wunderground v.1.15,2013-03-12 17:05:00,
2013-03-12 13:10:00,51.0,47.9,29.63,SSW,199,5.0,17.0,89,0.00,,,1.01,Wunderground v.1.15,2013-03-12 17:10:00,
2013-03-12 13:15:00,51.0,47.6,29.63,West,269,4.0,17.0,88,0.00,,,1.01,Wunderground v.1.15,2013-03-12 17:15:00,
2013-03-12 13:20:00,51.3,47.9,29.63,West,275,4.0,17.0,88,0.00,,,1.01,Wunderground v.1.15,2013-03-12 17:20:00,
2013-03-12 13:25:00,51.9,47.8,29.63,South,183,4.0,17.0,86,0.00,,,1.01,Wunderground v.1.15,2013-03-12 17:25:00,
2013-03-12 13:30:00,52.3,47.9,29.63,SSE,147,3.0,17.0,85,0.00,,,1.01,Wunderground v.1.15,2013-03-12 17:30:00,
2013-03-12 13:35:00,52.5,47.5,29.65,West,264,3.0,17.0,83,0.00,,,1.01,Wunderground v.1.15,2013-03-12 17:35:00,
2013-03-12 13:40:00,52.9,47.6,29.65,SSW,207,3.0,17.0,82,0.00,,,1.01,Wunderground v.1.15,2013-03-12 17:40:00,
2013-03-12 13:45:00,52.9,46.6,29.64,SSW,197,4.0,17.0,79,0.00,,,1.01,Wunderground v.1.15,2013-03-12 17:45:00,
2013-03-12 13:50:00,53.3,47.0,29.64,WSW,256,4.0,17.0,79,0.00,,,1.01,Wunderground v.1.15,2013-03-12 17:50:00,
2013-03-12 13:55:00,53.5,45.8,29.64,WSW,246,3.0,17.0,75,0.00,,,1.01,Wunderground v.1.15,2013-03-12 17:55:00,
2013-03-12 14:05:00,54.8,47.0,29.64,WSW,254,3.0,17.0,75,0.00,,,1.01,Wunderground v.1.15,2013-03-12 18:05:00,
2013-03-12 14:10:00,55.1,46.6,29.64,SSE,162,4.0,17.0,73,0.00,,,1.01,Wunderground v.1.15,2013-03-12 18:10:00,
2013-03-12 14:15:00,55.1,45.5,29.64,SW,228,5.0,17.0,70,0.00,,,1.01,Wunderground v.1.15,2013-03-12 18:15:00,
2013-03-12 14:20:00,54.7,44.3,29.64,WSW,242,7.0,7.0,68,0.00,,,1.01,Wunderground v.1.15,2013-03-12 18:20:00,
2013-03-12 14:25:00,53.9,43.6,29.64,SW,221,7.0,9.0,68,0.00,,,1.01,Wunderground v.1.15,2013-03-12 18:25:00,
2013-03-12 14:30:00,53.5,44.0,29.64,SW,223,5.0,5.0,70,0.00,,,1.01,Wunderground v.1.15,2013-03-12 18:30:00,
2013-03-12 14:35:00,53.3,43.0,29.64,West,260,4.0,17.0,68,0.00,,,1.01,Wunderground v.1.15,2013-03-12 18:35:00,
2013-03-12 14:45:00,53.6,44.0,29.64,WSW,249,3.0,17.0,70,0.00,,,1.01,Wunderground v.1.15,2013-03-12 18:45:00,
2013-03-12 14:50:00,53.9,43.6,29.64,SSW,193,3.0,17.0,68,0.00,,,1.01,Wunderground v.1.15,2013-03-12 18:50:00,
2013-03-12 14:55:00,53.5,43.2,29.64,South,185,4.0,17.0,68,0.00,,,1.01,Wunderground v.1.15,2013-03-12 18:55:00,
2013-03-12 15:00:00,53.2,42.9,29.64,WSW,246,5.0,5.0,68,0.00,,,1.01,Wunderground v.1.15,2013-03-12 19:00:00,
2013-03-12 15:05:00,53.2,42.9,29.65,SW,232,5.0,17.0,68,0.00,,,1.01,Wunderground v.1.15,2013-03-12 19:05:00,
2013-03-12 15:10:00,52.8,42.1,29.65,SSE,152,6.0,17.0,67,0.00,,,1.01,Wunderground v.1.15,2013-03-12 19:10:00,
2013-03-12 15:15:00,53.2,42.1,29.65,SSE,157,5.0,17.0,66,0.00,,,1.01,Wunderground v.1.15,2013-03-12 19:15:00,
2013-03-12 15:20:00,54.1,42.6,29.64,SSE,153,4.0,4.0,65,0.00,,,1.01,Wunderground v.1.15,2013-03-12 19:20:00,
2013-03-12 15:25:00,54.2,42.3,29.64,WSW,257,4.0,17.0,64,0.00,,,1.01,Wunderground v.1.15,2013-03-12 19:25:00,
2013-03-12 15:35:00,53.9,41.2,29.65,WSW,248,4.0,17.0,62,0.00,,,1.01,Wunderground v.1.15,2013-03-12 19:35:00,
2013-03-12 15:40:00,53.5,41.2,29.65,WSW,248,4.0,17.0,63,0.00,,,1.01,Wunderground v.1.15,2013-03-12 19:40:00,
2013-03-12 15:45:00,53.8,41.1,29.64,SW,224,3.0,17.0,62,0.00,,,1.01,Wunderground v.1.15,2013-03-12 19:45:00,
2013-03-12 15:50:00,54.5,41.3,29.64,SSE,149,3.0,17.0,61,0.00,,,1.01,Wunderground v.1.15,2013-03-12 19:50:00,
2013-03-12 16:00:00,54.4,40.4,29.64,WSW,254,3.0,3.0,59,0.00,,,1.01,Wunderground v.1.15,2013-03-12 20:00:00,
2013-03-12 16:05:00,54.2,41.0,29.65,WSW,246,3.0,17.0,61,0.00,,,1.01,Wunderground v.1.15,2013-03-12 20:05:00,
2013-03-12 16:10:00,54.1,40.5,29.65,WSW,245,4.0,4.0,60,0.00,,,1.01,Wunderground v.1.15,2013-03-12 20:10:00,
2013-03-12 16:15:00,53.8,39.8,29.65,West,276,4.0,17.0,59,0.00,,,1.01,Wunderground v.1.15,2013-03-12 20:15:00,
2013-03-12 16:20:00,53.6,39.6,29.66,East,90,3.0,3.0,59,0.00,,,1.01,Wunderground v.1.15,2013-03-12 20:20:00,
2013-03-12 16:25:00,53.5,39.5,29.66,SW,236,3.0,4.0,59,0.00,,,1.01,Wunderground v.1.15,2013-03-12 20:25:00,
2013-03-12 16:30:00,53.5,39.5,29.66,SSW,198,3.0,3.0,59,0.00,,,1.01,Wunderground v.1.15,2013-03-12 20:30:00,
2013-03-12 16:35:00,53.5,39.1,29.66,WSW,257,3.0,17.0,58,0.00,,,1.01,Wunderground v.1.15,2013-03-12 20:35:00,
2013-03-12 16:40:00,53.3,38.4,29.66,SSW,207,4.0,17.0,57,0.00,,,1.01,Wunderground v.1.15,2013-03-12 20:40:00,
2013-03-12 16:45:00,53.2,38.8,29.67,West,259,4.0,17.0,58,0.00,,,1.01,Wunderground v.1.15,2013-03-12 20:45:00,
2013-03-12 16:55:00,52.6,36.9,29.67,SSW,200,5.0,17.0,55,0.00,,,1.01,Wunderground v.1.15,2013-03-12 20:55:00,
2013-03-12 17:00:00,52.5,37.7,29.67,SW,216,7.0,17.0,57,0.00,,,1.01,Wunderground v.1.15,2013-03-12 21:00:00,
2013-03-12 17:05:00,52.6,36.9,29.68,SSW,203,5.0,17.0,55,0.00,,,1.01,Wunderground v.1.15,2013-03-12 21:05:00,
2013-03-12 17:10:00,52.0,36.8,29.68,SSW,198,5.0,5.0,56,0.00,,,1.01,Wunderground v.1.15,2013-03-12 21:10:00,
2013-03-12 17:15:00,51.6,36.4,29.68,SE,138,6.0,7.0,56,0.00,,,1.01,Wunderground v.1.15,2013-03-12 21:15:00,
2013-03-12 17:20:00,52.0,36.3,29.69,SSW,209,5.0,17.0,55,0.00,,,1.01,Wunderground v.1.15,2013-03-12 21:20:00,
2013-03-12 17:25:00,51.9,36.2,29.69,SSE,156,6.0,17.0,55,0.00,,,1.01,Wunderground v.1.15,2013-03-12 21:25:00,
2013-03-12 17:30:00,51.6,35.9,29.69,WSW,245,6.0,6.0,55,0.00,,,1.01,Wunderground v.1.15,2013-03-12 21:30:00,
2013-03-12 17:35:00,51.6,35.9,29.69,SW,220,6.0,17.0,55,0.00,,,1.01,Wunderground v.1.15,2013-03-12 21:35:00,
2013-03-12 17:45:00,51.0,35.4,29.69,West,271,4.0,17.0,55,0.00,,,1.01,Wunderground v.1.15,2013-03-12 21:45:00,
2013-03-12 17:50:00,50.7,36.0,29.71,SSW,195,4.0,4.0,57,0.00,,,1.01,Wunderground v.1.15,2013-03-12 21:50:00,
2013-03-12 17:55:00,50.5,34.9,29.71,WSW,250,3.0,17.0,55,0.00,,,1.01,Wunderground v.1.15,2013-03-12 21:55:00,
2013-03-12 18:00:00,49.9,34.4,29.71,SW,216,4.0,17.0,55,0.00,,,1.01,Wunderground v.1.15,2013-03-12 22:00:00,
2013-03-12 18:05:00,49.5,34.0,29.71,West,259,4.0,17.0,55,0.00,,,1.01,Wunderground v.1.15,2013-03-12 22:05:00,
2013-03-12 18:10:00,49.2,34.2,29.71,South,186,3.0,17.0,56,0.00,,,1.01,Wunderground v.1.15,2013-03-12 22:10:00,
2013-03-12 18:15:00,49.1,33.6,29.72,WSW,244,3.0,17.0,55,0.00,,,1.01,Wunderground v.1.15,2013-03-12 22:15:00,
2013-03-12 18:25:00,48.5,33.5,29.72,WSW,246,4.0,5.0,56,0.00,,,1.01,Wunderground v.1.15,2013-03-12 22:25:00,
2013-03-12 18:30:00,48.3,33.3,29.73,SW,232,3.0,3.0,56,0.00,,,1.01,Wunderground v.1.15,2013-03-12 22:30:00,
2013-03-12 18:40:00,47.9,33.8,29.73,WNW,300,2.0,17.0,58,0.00,,,1.01,Wunderground v.1.15,2013-03-12 22:40:00,
2013-03-12 18:45:00,47.6,33.5,29.73,West,271,2.0,17.0,58,0.00,,,1.01,Wunderground v.1.15,2013-03-12 22:45:00,
2013-03-12 18:50:00,47.1,33.1,29.73,West,270,2.0,17.0,58,0.00,,,1.01,Wunderground v.1.15,2013-03-12 22:50:00,
2013-03-12 18:55:00,46.7,33.1,29.73,SW,232,2.0,17.0,59,0.00,,,1.01,Wunderground v.1.15,2013-03-12 22:55:00,
2013-03-12 19:00:00,46.2,32.7,29.75,WSW,245,3.0,3.0,59,0.00,,,1.01,Wunderground v.1.15,2013-03-12 23:00:00,
2013-03-12 19:05:00,45.8,32.3,29.75,SW,232,3.0,4.0,59,0.00,,,1.01,Wunderground v.1.15,2013-03-12 23:05:00,
2013-03-12 19:10:00,45.5,32.4,29.75,SW,224,2.0,17.0,60,0.00,,,1.01,Wunderground v.1.15,2013-03-12 23:10:00,
2013-03-12 19:15:00,45.2,32.1,29.75,WSW,258,2.0,17.0,60,0.00,,,1.01,Wunderground v.1.15,2013-03-12 23:15:00,
2013-03-12 19:20:00,44.9,31.8,29.75,West,281,2.0,17.0,60,0.00,,,1.01,Wunderground v.1.15,2013-03-12 23:20:00,
2013-03-12 19:30:00,44.5,31.1,29.75,WSW,252,3.0,17.0,59,0.00,,,1.01,Wunderground v.1.15,2013-03-12 23:30:00,
2013-03-12 19:35:00,44.3,30.4,29.76,SW,225,4.0,17.0,58,0.00,,,1.01,Wunderground v.1.15,2013-03-12 23:35:00,
2013-03-12 19:40:00,44.2,30.3,29.76,SSW,206,4.0,4.0,58,0.00,,,1.01,Wunderground v.1.15,2013-03-12 23:40:00,
2013-03-12 19:45:00,44.1,30.7,29.76,West,259,3.0,17.0,59,0.00,,,1.01,Wunderground v.1.15,2013-03-12 23:45:00,
2013-03-12 19:50:00,43.9,30.5,29.76,West,269,2.0,2.0,59,0.00,,,1.01,Wunderground v.1.15,2013-03-12 23:50:00,
2013-03-12 19:55:00,43.8,30.8,29.76,SSW,192,2.0,6.0,60,0.00,,,1.01,Wunderground v.1.15,2013-03-12 23:55:00,
2013-03-12 20:00:00,43.5,30.9,29.76,West,278,1.0,17.0,61,0.00,,,1.01,Wunderground v.1.15,2013-03-13 00:00:00,
2013-03-12 20:05:00,43.3,30.7,29.76,SW,232,1.0,17.0,61,0.00,,,1.01,Wunderground v.1.15,2013-03-13 00:05:00,
2013-03-12 20:10:00,43.3,31.1,29.76,SW,232,1.0,17.0,62,0.00,,,1.01,Wunderground v.1.15,2013-03-13 00:10:00,
2013-03-12 20:15:00,43.1,31.4,29.76,WSW,238,1.0,17.0,63,0.00,,,1.01,Wunderground v.1.15,2013-03-13 00:15:00,
2013-03-12 20:20:00,42.8,31.5,29.76,WSW,246,1.0,1.0,64,0.00,,,1.01,Wunderground v.1.15,2013-03-13 00:20:00,
2013-03-12 20:30:00,42.5,31.2,29.76,SW,217,0.0,17.0,64,0.00,,,1.01,Wunderground v.1.15,2013-03-13 00:30:00,
2013-03-12 20:35:00,42.3,31.0,29.78,SW,216,0.0,17.0,64,0.00,,,1.01,Wunderground v.1.15,2013-03-13 00:35:00,
2013-03-12 20:40:00,42.2,30.9,29.78,SW,229,0.0,17.0,64,0.00,,,1.01,Wunderground v.1.15,2013-03-13 00:40:00,
2013-03-12 20:45:00,42.1,30.8,29.78,WSW,250,1.0,17.0,64,0.00,,,1.01,Wunderground v.1.15,2013-03-13 00:45:00,
2013-03-12 20:50:00,42.1,30.8,29.78,South,178,1.0,17.0,64,0.00,,,1.01,Wunderground v.1.15,2013-03-13 00:50:00,
2013-03-12 20:55:00,42.1,30.8,29.78,SW,219,1.0,17.0,64,0.00,,,1.01,Wunderground v.1.15,2013-03-13 00:55:00,
2013-03-12 21:00:00,42.1,30.0,29.78,West,279,1.0,17.0,62,0.00,,,1.01,Wunderground v.1.15,2013-03-13 01:00:00,
2013-03-12 21:10:00,42.1,30.0,29.78,WSW,248,2.0,2.0,62,0.00,,,1.01,Wunderground v.1.15,2013-03-13 01:10:00,
2013-03-12 21:15:00,42.1,30.0,29.78,SW,223,2.0,17.0,62,0.00,,,1.01,Wunderground v.1.15,2013-03-13 01:15:00,
2013-03-12 21:20:00,42.1,30.0,29.78,WNW,290,2.0,17.0,62,0.00,,,1.01,Wunderground v.1.15,2013-03-13 01:20:00,
2013-03-12 21:25:00,42.1,29.6,29.78,WSW,254,2.0,17.0,61,0.00,,,1.01,Wunderground v.1.15,2013-03-13 01:25:00,
2013-03-12 21:30:00,42.2,29.7,29.79,SW,225,2.0,17.0,61,0.00,,,1.01,Wunderground v.1.15,2013-03-13 01:30:00,
2013-03-12 21:35:00,42.1,29.6,29.79,South,180,2.0,17.0,61,0.00,,,1.01,Wunderground v.1.15,2013-03-13 01:35:00,
2013-03-12 21:40:00,42.1,29.6,29.79,West,272,2.0,2.0,61,0.00,,,1.01,Wunderground v.1.15,2013-03-13 01:40:00,
2013-03-12 21:50:00,42.1,29.6,29.80,South,181,1.0,17.0,61,0.00,,,1.01,Wunderground v.1.15,2013-03-13 01:50:00,
2013-03-12 21:55:00,42.2,30.1,29.80,WSW,250,1.0,17.0,62,0.00,,,1.01,Wunderground v.1.15,2013-03-13 01:55:00,
2013-03-12 22:00:00,42.1,30.0,29.80,SW,232,1.0,17.0,62,0.00,,,1.01,Wunderground v.1.15,2013-03-13 02:00:00,
2013-03-12 22:05:00,41.9,29.4,29.80,WSW,240,2.0,17.0,61,0.00,,,1.01,Wunderground v.1.15,2013-03-13 02:05:00,
2013-03-12 22:10:00,41.9,29.8,29.80,SSW,205,1.0,1.0,62,0.00,,,1.01,Wunderground v.1.15,2013-03-13 02:10:00,
2013-03-12 22:15:00,41.8,29.7,29.81,SSW,205,0.0,17.0,62,0.00,,,1.01,Wunderground v.1.15,2013-03-13 02:15:00,
2013-03-12 22:25:00,41.6,29.9,29.81,WSW,253,1.0,17.0,63,0.00,,,1.01,Wunderground v.1.15,2013-03-13 02:25:00,
2013-03-12 22:35:00,41.5,29.8,29.81,WSW,247,1.0,17.0,63,0.00,,,1.01,Wunderground v.1.15,2013-03-13 02:35:00,
2013-03-12 22:40:00,41.5,29.8,29.81,WSW,254,1.0,17.0,63,0.00,,,1.01,Wunderground v.1.15,2013-03-13 02:40:00,
2013-03-12 22:45:00,41.3,29.6,29.81,WSW,245,1.0,17.0,63,0.00,,,1.01,Wunderground v.1.15,2013-03-13 02:45:00,
2013-03-12 22:50:00,41.3,29.6,29.81,WSW,245,1.0,1.0,63,0.00,,,1.01,Wunderground v.1.15,2013-03-13 02:50:00,
2013-03-12 22:55:00,41.2,29.5,29.81,SW,232,0.0,17.0,63,0.00,,,1.01,Wunderground v.1.15,2013-03-13 02:55:00,
2013-03-12 23:00:00,41.2,29.2,29.81,SW,221,1.0,17.0,62,0.00,,,1.01,Wunderground v.1.15,2013-03-13 03:00:00,
2013-03-12 23:05:00,41.2,29.2,29.81,WSW,250,1.0,17.0,62,0.00,,,1.01,Wunderground v.1.15,2013-03-13 03:05:00,
2013-03-12 23:10:00,41.1,29.1,29.81,WSW,250,1.0,1.0,62,0.00,,,1.01,Wunderground v.1.15,2013-03-13 03:10:00,
2013-03-12 23:15:00,41.1,28.7,29.81,WSW,250,0.0,17.0,61,0.00,,,1.01,Wunderground v.1.15,2013-03-13 03:15:00,
2013-03-12 23:20:00,40.9,28.5,29.82,WSW,257,2.0,17.0,61,0.00,,,1.01,Wunderground v.1.15,2013-03-13 03:20:00,
2013-03-12 23:25:00,40.9,28.5,29.82,WSW,245,2.0,17.0,61,0.00,,,1.01,Wunderground v.1.15,2013-03-13 03:25:00,
2013-03-12 23:30:00,40.8,28.4,29.81,SW,232,1.0,17.0,61,0.00,,,1.01,Wunderground v.1.15,2013-03-13 03:30:00,
2013-03-12 23:40:00,40.6,28.6,29.81,SW,223,1.0,1.0,62,0.00,,,1.01,Wunderground v.1.15,2013-03-13 03:40:00,
2013-03-12 23:45:00,40.5,28.5,29.81,South,185,1.0,17.0,62,0.00,,,1.01,Wunderground v.1.15,2013-03-13 03:45:00,
2013-03-12 23:50:00,40.3,28.7,29.82,WSW,253,0.0,17.0,63,0.00,,,1.01,Wunderground v.1.15,2013-03-13 03:50:00,
2013-03-12 23:55:00,40.2,28.6,29.82,SSW,194,1.0,17.0,63,0.00,,,1.01,Wunderground v.1.15,2013-03-13 03:55:00,